Погода в Улахан-Кюёль

Россия / Республика Саха (Якутия)     67°32′27″N   136°30′29″E
темп.,
°C
ветер,
м/с
пор.,
м/с
влажн.,
%
обл.,
%
осадки,
мм/ч
давл.,
гПа
погр.,
м
3 марта, ср
ср301:00−38юз129866 0.0 102619
04:00−39зюз119983 0.0 102518
07:00−39юз1199100 0.0 102418
10:00−36зюз1196100 0.0 102370
13:00−34зсз1290100 0.0 1021356
16:00−34зсз2290100 0.0 1020407
19:00−36з1198100 0.0 102019
22:00−36зюз1198100 0.1 102020
4 марта, чт
чт401:00−36з1198100 0.1 101922
04:00−37зюз1298100 0.1 101929
07:00−39зюз1298100 0.0 102020
10:00−38зюз1297100 0.1 102095
13:00−36з2288100 0.0 1021410
16:00−35з2288100 0.0 1021473
19:00−36зюз1298100 0.1 102325
22:00−36ююз1197100 0.1 102321
5 марта, пт
пт501:00−36ююв1197100 0.1 102420
04:00−36юв1196100 0.1 102419
07:00−36вюв1196100 0.0 102519
10:00−35вюв1193100 0.1 1025159
13:00−33ссв0186100 0.0 1025391
16:00−32с1188100 0.1 1024388
19:00−33всв1198100 0.1 102621
22:00−33юв0098100 0.1 102619
6 марта, сб
сб601:00−33св0097100 0.1 102619
04:00−32юв1198100 0.1 102620
07:00−32юв1197100 0.1 102719
10:00−31в0094100 0.1 1027149
13:00−30с1187100 0.0 1026401
16:00−29ссв1188100 0.1 1026358
19:00−32вюв1197100 0.0 102619
22:00−32юв1198100 0.1 102719
7 марта, вс
вс701:00−34юв1199100 0.0 102619
04:00−34вюв11100100 0.1 102719
07:00−34в1192100 0.0 102719
10:00−32в118899 0.0 102663
13:00−30всв1183100 0.0 1024312
16:00−28всв2285100 0.0 1024305
19:00−31св1289100 0.0 102320
22:00−31в1188100 0.0 102319